QPF
0.00 0.00 0.00 0.00 0.00 0.04 0.01 0.01 0.00 0.00 0.00 0.00 0.00 0.00 0.00 0.00 0.00 0.00 0.00 0.00 0.00 0.00 0.00 0.00 0.00 0.00 0.00 0.00 0.00 0.00 0.00 0.00 0.00 0.00 0.00 0.00 0.00 0.00 0.01 0.11 0.01 0.01 0.01 0.00
0.00 0.00 0.00 0.00 0.00 0.00 0.00 0.00 0.00 0.00 0.00 0.00 0.01 0.00 0.00 0.00 0.00 0.00 0.00 0.00 0.00 0.00 0.00 0.00 0.00 0.00 0.00 0.00 0.00 0.00 0.00 0.00 0.00 0.00 0.00 0.00 0.00 0.00 0.11 0.47 0.03 0.00 0.00 0.00
0.00 0.00 0.00 0.00 0.00 0.00 0.00 0.00 0.00 0.00 0.00 0.00 0.00 0.00 0.01 0.11 0.00 0.00 0.00 0.00 0.00 0.00 0.00 0.00 0.00 0.00 0.00 0.00 0.00 0.00 0.00 0.00 0.00 0.00 0.00 0.00 0.00 0.00 0.01 0.03 0.01 0.00 0.00 0.00
0.00 0.00 0.00 0.00 0.00 0.00 0.00 0.00 0.00 0.00 0.00 0.00 0.00 0.00 0.02 0.05 0.01 0.00 0.00 0.00 0.00 0.00 0.00 0.00 0.00 0.00 0.00 0.00 0.00 0.00 0.00 0.00 0.00 0.00 0.00 0.00 0.00 0.00 0.00 0.00 0.00 0.00 0.00 0.00
0.00 0.00 0.00 0.00 0.00 0.00 0.00 0.00 0.00 0.00 0.00 0.00 0.00 0.00 0.00 0.01 0.03 0.01 0.00 0.00 0.00 0.00 0.00 0.00 0.00 0.00 0.00 0.00 0.00 0.00 0.00 0.00 0.00 0.00 0.00 0.01 0.00 0.00 0.00 0.00 0.00 0.01 0.02 0.01
0.00 0.00 0.00 0.00 0.00 0.00 0.00 0.00 0.00 0.00 0.00 0.00 0.00 0.00 0.00 0.06 0.20 0.09 0.03 0.00 0.00 0.00 0.00 0.00 0.00 0.00 0.00 0.00 0.00 0.00 0.00 0.00 0.00 0.00 0.00 0.00 0.01 0.00 0.00 0.00 0.00 0.00 0.02 0.07
0.00 0.00 0.00 0.00 0.00 0.00 0.00 0.00 0.00 0.00 0.00 0.00 0.00 0.00 0.00 0.04 0.02 0.01 0.01 0.00 0.00 0.00 0.00 0.00 0.00 0.00 0.00 0.00 0.00 0.00 0.00 0.00 0.00 0.00 0.00 0.00 0.00 0.00 0.00 0.00 0.00 0.00 0.00 0.01
0.00 0.00 0.00 0.00 0.00 0.00 0.00 0.00 0.00 0.00 0.00 0.00 0.00 0.00 0.00 0.00 0.00 0.00 0.00 0.00 0.00 0.00 0.00 0.00 0.00 0.00 0.00 0.00 0.00 0.00 0.00 0.00 0.00 0.00 0.00 0.00 0.00 0.00 0.00 0.00 0.00 0.00 0.00 0.00
0.00 0.00 0.00 0.00 0.00 0.00 0.00 0.00 0.00 0.00 0.00 0.00 0.00 0.00 0.00 0.00 0.00 0.00 0.00 0.00 0.00 0.00 0.00 0.00 0.00 0.00 0.00 0.00 0.00 0.00 0.00 0.00 0.00 0.00 0.00 0.00 0.00 0.00 0.00 0.00 0.00 0.00 0.00 0.00
0.00 0.00 0.00 0.00 0.00 0.00 0.00 0.00 0.00 0.00 0.00 0.00 0.00 0.00 0.00 0.00 0.00 0.00 0.00 0.00 0.00 0.00 0.00 0.00 0.00 0.00 0.00 0.00 0.00 0.00 0.00 0.00 0.00 0.00 0.00 0.00 0.00 0.00 0.01 0.00 0.00 0.00 0.00 0.00
0.00 0.00 0.00 0.00 0.00 0.00 0.00 0.00 0.00 0.00 0.00 0.00 0.00 0.00 0.00 0.00 0.00 0.00 0.00 0.00 0.00 0.00 0.00 0.00 0.00 0.00 0.00 0.00 0.00 0.00 0.00 0.00 0.00 0.00 0.00 0.00 0.00 0.00 0.00 0.00 0.00 0.00 0.00 0.00
0.00 0.00 0.00 0.00 0.00 0.00 0.00 0.00 0.00 0.00 0.00 0.00 0.00 0.00 0.00 0.00 0.00 0.00 0.00 0.00 0.00 0.00 0.00 0.00 0.00 0.00 0.00 0.00 0.00 0.00 0.00 0.00 0.00 0.00 0.00 0.00 0.00 0.00 0.00 0.00 0.00 0.00 0.00 0.00
0.00 0.00 0.00 0.00 0.00 0.00 0.00 0.00 0.00 0.00 0.00 0.00 0.00 0.00 0.00 0.00 0.00 0.00 0.00 0.00 0.00 0.00 0.00 0.00 0.00 0.00 0.00 0.00 0.00 0.00 0.00 0.00 0.00 0.00 0.00 0.00 0.00 0.00 0.00 0.00 0.00 0.00 0.00 0.00
0.00 0.00 0.00 0.00 0.00 0.00 0.00 0.00 0.00 0.00 0.00 0.00 0.00 0.00 0.00 0.00 0.00 0.00 0.00 0.00 0.00 0.00 0.00 0.00 0.00 0.00 0.00 0.00 0.00 0.00 0.00 0.00 0.00 0.00 0.00 0.00 0.00 0.00 0.00 0.00 0.00 0.00 0.00 0.00
0.00 0.00 0.00 0.00 0.00 0.00 0.00 0.00 0.00 0.00 0.00 0.00 0.00 0.00 0.00 0.00 0.00 0.00 0.00 0.00 0.00 0.00 0.00 0.00 0.00 0.00 0.00 0.00 0.00 0.00 0.00 0.00 0.00 0.00 0.00 0.00 0.00 0.00 0.00 0.00 0.00 0.00 0.00 0.00
0.00 0.00 0.00 0.00 0.00 0.00 0.00 0.00 0.00 0.00 0.00 0.00 0.00 0.00 0.00 0.00 0.01 0.00 0.00 0.00 0.00 0.00 0.00 0.00 0.00 0.00 0.00 0.00 0.00 0.00 0.00 0.00 0.00 0.00 0.00 0.00 0.00 0.00 0.00 0.00 0.00 0.00 0.00 0.00
0.00 0.00 0.00 0.00 0.00 0.00 0.00 0.00 0.00 0.00 0.00 0.00 0.00 0.00 0.00 0.00 0.00 0.00 0.00 0.00 0.00 0.00 0.00 0.00 0.00 0.00 0.00 0.00 0.00 0.00 0.00 0.00 0.00 0.00 0.00 0.00 0.00 0.02 0.04 0.05 0.06 0.05 0.06 0.09
0.00 0.00 0.00 0.00 0.00 0.00 0.00 0.00 0.00 0.00 0.00 0.00 0.00 0.00 0.00 0.00 0.00 0.00 0.00 0.00 0.00 0.00 0.00 0.00 0.00 0.00 0.00 0.00 0.00 0.00 0.00 0.00 0.00 0.00 0.00 0.00 0.00 0.01 0.01 0.00 0.00 0.00 0.00 0.01
0.00 0.00 0.00 0.00 0.00 0.00 0.00 0.00 0.00 0.00 0.00 0.00 0.00 0.00 0.00 0.00 0.00 0.00 0.00 0.00 0.00 0.00 0.00 0.00 0.00 0.00 0.00 0.00 0.00 0.00 0.00 0.00 0.00 0.00 0.00 0.00 0.00 0.00 0.00 0.00 0.00 0.00 0.00 0.00
0.00 0.00 0.00 0.00 0.00 0.00 0.00 0.00 0.00 0.00 0.00 0.00 0.00 0.00 0.00 0.00 0.00 0.00 0.00 0.00 0.00 0.00 0.00 0.00 0.00 0.00 0.00 0.00 0.00 0.00 0.00 0.00 0.00 0.00 0.00 0.00 0.00 0.00 0.00 0.00 0.00 0.00 0.00 0.00
0.00 0.00 0.00 0.00 0.00 0.00 0.00 0.01 0.00 0.00 0.00 0.00 0.00 0.00 0.00 0.00 0.00 0.10 0.06 0.00 0.00 0.00 0.00 0.00 0.00 0.00 0.00 0.00 0.00 0.00 0.00 0.00 0.00 0.00 0.00 0.00 0.00 0.00 0.00 0.00 0.00 0.00 0.00 0.00
0.00 0.00 0.00 0.00 0.00 0.00 0.00 0.03 0.01 0.00 0.00 0.00 0.00 0.00 0.00 0.00 0.01 0.38 0.33 0.10 0.00 0.00 0.00 0.00 0.00 0.00 0.00 0.00 0.00 0.00 0.00 0.00 0.00 0.00 0.00 0.00 0.00 0.00 0.00 0.00 0.00 0.00 0.00 0.00
0.00 0.00 0.00 0.00 0.00 0.00 0.00 0.00 0.00 0.00 0.00 0.00 0.00 0.00 0.00 0.00 0.01 0.03 0.08 0.03 0.00 0.00 0.00 0.00 0.00 0.00 0.00 0.00 0.00 0.00 0.00 0.00 0.00 0.00 0.00 0.00 0.00 0.00 0.00 0.00 0.00 0.00 0.01 0.01
0.00 0.00 0.00 0.00 0.00 0.00 0.01 0.02 0.00 0.00 0.00 0.00 0.00 0.00 0.00 0.00 0.01 0.02 0.01 0.00 0.00 0.00 0.00 0.00 0.00 0.00 0.00 0.00 0.00 0.00 0.00 0.01 0.01 0.01 0.00 0.00 0.00 0.00 0.00 0.00 0.00 0.00 0.00 0.00
0.06 0.01 0.00 0.01 0.06 0.00 0.00 0.00 0.00 0.00 0.00 0.00 0.00 0.00 0.00 0.00 0.00 0.00 0.00 0.00 0.00 0.00 0.00 0.01 0.03 0.00 0.00 0.00 0.00 0.00 0.02 0.00 0.00 0.00 0.00 0.00 0.00 0.00 0.00 0.00 0.00 0.00 0.00 0.00
0.46 0.10 0.00 0.00 0.02 0.01 0.00 0.00 0.00 0.00 0.00 0.00 0.00 0.00 0.00 0.00 0.00 0.00 0.00 0.00 0.00 0.00 0.00 0.00 0.00 0.00 0.00 0.00 0.01 0.01 0.01 0.00 0.00 0.00 0.00 0.02 0.00 0.00 0.00 0.00 0.00 0.00 0.00 0.00
MSLP
999.38 999.27 999.00 998.94 1000.64 1001.62 1004.35 1003.10 1000.35 999.76 999.61 999.63 999.83 1000.80 1002.17 1002.97 1003.70 1004.43 1005.07 1005.78 1006.25 1006.66 1007.07 1007.94 1008.60 1009.05 1010.02 1011.10 1012.25 1012.86 1013.30 1013.75 1014.21 1014.81 1014.98 1015.13 1015.28 1015.33 1015.66 1016.71 1015.69 1016.39 1016.60 1016.28
999.14 998.23 998.48 998.44 999.74 1000.70 1001.74 1000.14 1000.10 999.30 999.25 999.41 999.82 1000.10 1001.92 1003.26 1003.83 1004.09 1004.54 1005.21 1005.77 1006.23 1006.71 1007.57 1008.20 1008.78 1009.75 1010.87 1012.03 1012.80 1013.17 1013.72 1014.18 1014.49 1014.56 1014.84 1015.03 1015.80 1016.77 1017.10 1016.54 1015.70 1016.28 1016.17
998.34 997.58 997.75 997.89 997.98 998.20 998.44 998.35 998.88 999.24 998.59 998.49 998.96 1000.43 1002.42 1006.63 1004.45 1003.86 1003.89 1004.51 1005.21 1005.70 1006.20 1007.00 1007.89 1008.31 1009.12 1010.30 1011.39 1012.41 1012.98 1013.60 1014.06 1014.08 1014.29 1014.78 1015.13 1015.27 1016.48 1016.40 1015.98 1015.82 1015.95 1015.86
997.89 997.44 996.79 997.21 997.24 997.26 996.86 996.95 997.24 997.30 997.99 998.06 998.86 1000.50 1003.50 1004.73 1003.88 1003.92 1003.56 1003.72 1004.29 1005.08 1005.75 1006.14 1006.89 1007.67 1008.34 1009.46 1010.58 1011.61 1012.59 1013.24 1013.78 1013.94 1014.14 1014.59 1015.00 1015.02 1014.99 1014.91 1014.92 1015.30 1015.56 1015.46
997.52 997.05 996.78 996.78 996.61 996.66 996.57 996.30 996.87 997.05 997.45 997.95 998.44 999.63 1003.18 1003.58 1003.80 1004.31 1003.48 1003.18 1003.32 1003.92 1004.75 1005.22 1005.66 1006.52 1007.21 1008.30 1009.50 1010.68 1011.84 1012.60 1013.09 1013.55 1013.73 1014.11 1014.57 1014.64 1014.42 1014.51 1014.82 1015.22 1014.99 1014.88
997.57 996.89 996.99 996.93 996.91 996.86 996.91 996.84 996.86 997.29 997.58 997.64 997.98 999.02 1003.22 1004.73 1004.32 1005.12 1004.54 1003.48 1002.43 1002.75 1003.69 1004.35 1004.84 1005.60 1006.50 1007.64 1008.84 1009.96 1011.18 1012.14 1012.80 1013.29 1013.55 1013.91 1014.05 1014.25 1014.41 1014.28 1014.40 1014.43 1014.70 1014.78
997.84 997.13 997.18 997.29 997.31 997.17 997.24 997.12 996.98 997.01 997.02 996.89 997.05 999.11 1002.35 1002.82 1003.02 1002.48 1002.39 1001.60 1001.32 1001.72 1002.68 1003.42 1003.92 1004.68 1005.80 1007.01 1008.08 1009.27 1010.52 1011.62 1012.42 1012.90 1013.30 1013.60 1013.78 1013.92 1014.09 1014.20 1014.24 1014.19 1014.20 1014.23
997.08 996.88 997.09 997.10 997.39 997.06 996.98 996.88 996.84 996.65 996.28 996.12 997.34 999.88 1002.02 1003.67 1001.58 1000.73 1000.82 1000.04 1000.07 1000.91 1001.54 1002.31 1003.21 1003.99 1005.24 1006.37 1007.58 1008.75 1010.20 1011.20 1011.96 1012.59 1013.04 1013.47 1013.69 1013.78 1013.94 1014.09 1014.03 1013.70 1013.76 1014.80
996.25 995.82 995.56 996.22 996.65 997.32 996.69 996.40 996.83 996.61 996.32 996.32 997.31 998.63 999.14 1000.14 999.36 998.25 997.80 998.22 999.12 999.95 1000.53 1001.61 1002.59 1003.56 1004.62 1005.86 1007.02 1008.02 1009.50 1010.46 1011.44 1012.11 1012.43 1012.90 1013.46 1013.67 1013.70 1013.80 1013.96 1013.78 1014.07 1015.38
996.17 995.59 994.68 995.26 996.20 996.59 996.66 996.23 996.32 996.58 996.74 996.50 997.04 998.03 997.79 998.46 997.60 996.73 997.26 997.62 998.41 999.28 999.86 1000.62 1001.72 1002.81 1003.99 1005.25 1006.58 1007.72 1008.96 1009.87 1010.54 1011.27 1012.27 1012.72 1013.14 1013.52 1013.73 1013.65 1013.73 1013.70 1013.59 1014.22
996.45 995.95 995.35 995.10 995.76 996.10 996.41 996.34 996.24 995.94 995.98 995.94 995.89 996.36 996.43 996.81 996.22 995.87 996.54 996.81 997.54 998.28 999.00 999.63 1000.70 1001.98 1003.29 1004.58 1005.97 1007.39 1008.58 1009.51 1010.24 1010.96 1011.71 1012.24 1012.67 1013.17 1013.54 1013.65 1013.66 1013.78 1013.85 1013.86
996.34 996.17 995.47 995.00 995.27 995.77 995.81 995.75 996.16 995.74 995.76 995.28 995.18 995.90 995.08 995.59 995.81 995.88 996.33 996.74 997.14 997.23 997.49 998.67 999.74 1001.36 1002.91 1004.30 1005.61 1007.07 1008.15 1009.17 1010.09 1010.57 1011.16 1011.68 1012.34 1012.65 1012.95 1013.39 1013.56 1013.75 1013.92 1014.01
996.01 996.44 995.69 994.91 994.78 995.21 995.60 995.50 995.17 995.33 994.90 995.03 994.90 995.05 995.49 995.46 995.83 996.21 996.33 997.04 997.60 997.87 998.01 998.66 999.76 1001.26 1002.68 1004.26 1005.66 1006.94 1008.02 1008.92 1009.66 1010.36 1011.15 1011.59 1012.10 1012.43 1012.79 1013.04 1013.35 1013.26 1013.49 1013.74
996.20 995.96 995.84 994.76 994.21 993.96 994.78 995.13 995.10 994.92 994.60 994.41 994.41 994.60 995.12 995.28 995.95 996.82 997.21 997.91 998.63 998.82 998.85 999.24 1000.13 1001.66 1002.97 1004.73 1006.16 1007.27 1008.13 1008.93 1009.62 1010.45 1011.29 1011.64 1012.16 1012.62 1012.75 1013.08 1013.02 1012.95 1013.14 1013.31
996.68 996.14 995.70 994.92 994.47 993.95 993.78 994.24 994.76 995.04 994.66 994.36 994.42 995.25 996.28 995.55 996.77 997.38 997.73 998.67 999.31 999.42 999.65 1000.10 1001.21 1002.66 1004.06 1005.35 1006.59 1007.62 1008.50 1009.29 1010.04 1010.75 1011.08 1011.42 1011.78 1012.12 1012.37 1012.56 1012.68 1012.79 1012.92 1013.07
996.55 996.25 995.96 995.29 994.62 994.20 994.07 993.80 993.72 994.10 994.57 994.41 994.61 995.26 995.92 997.50 997.26 997.55 998.36 998.92 999.60 999.94 1000.07 1000.99 1002.08 1003.44 1004.71 1006.06 1007.15 1008.08 1008.88 1009.64 1010.22 1010.74 1011.15 1011.47 1011.86 1012.11 1012.32 1012.54 1012.75 1012.86 1012.90 1013.00
996.10 996.05 995.90 995.48 994.89 994.27 994.31 993.94 993.58 993.34 993.79 994.22 994.50 995.26 996.11 997.47 997.69 997.75 998.09 998.96 999.68 1000.21 1000.84 1001.95 1002.88 1003.89 1005.23 1006.44 1007.55 1008.48 1009.25 1009.86 1010.33 1010.75 1011.13 1011.41 1011.69 1011.90 1012.08 1012.20 1012.44 1012.56 1012.64 1012.81
995.56 995.72 995.52 995.05 994.91 994.56 993.95 993.37 993.22 993.25 993.65 993.95 994.52 995.34 995.97 996.90 997.22 997.61 998.18 998.70 999.52 1000.28 1001.44 1002.50 1003.35 1004.24 1005.47 1006.57 1007.67 1008.42 1008.99 1009.74 1010.24 1010.52 1010.72 1011.00 1011.27 1011.53 1011.71 1011.80 1011.96 1011.86 1011.88 1012.03
995.26 995.01 994.90 994.67 994.54 994.50 993.88 993.31 993.84 993.40 993.75 994.82 995.01 995.80 996.35 996.90 997.05 998.18 998.27 998.82 999.65 1000.57 1001.75 1002.65 1003.40 1004.40 1005.50 1006.70 1007.55 1008.42 1009.06 1009.38 1009.91 1010.28 1010.60 1010.81 1010.99 1011.17 1011.34 1011.46 1011.56 1011.66 1011.80 1011.92
995.10 994.91 994.84 994.60 994.41 994.48 994.96 994.02 992.86 993.32 994.48 995.52 995.81 996.50 997.83 998.49 998.62 999.38 998.57 999.20 1000.26 1001.40 1001.70 1002.29 1003.41 1004.80 1005.88 1006.84 1007.68 1008.04 1008.84 1009.20 1009.69 1009.98 1010.38 1010.56 1010.82 1011.15 1011.36 1011.58 1011.66 1011.75 1011.82 1011.83
995.33 995.12 994.86 994.73 994.54 994.20 995.10 995.61 995.10 994.35 995.89 995.80 996.48 996.78 997.21 1000.14 1002.83 1002.92 1002.14 1000.08 1001.01 1001.92 1002.14 1002.54 1003.78 1005.00 1006.04 1006.82 1007.56 1008.18 1008.72 1009.25 1009.72 1010.20 1010.72 1011.14 1011.20 1011.41 1011.64 1011.83 1011.77 1011.73 1011.75 1011.65
997.21 995.98 995.30 994.98 994.84 994.74 995.27 996.85 998.47 995.28 996.02 995.74 996.10 996.64 997.14 999.46 1001.12 1002.89 1003.90 1003.64 1001.22 1002.10 1002.89 1003.41 1004.27 1005.18 1006.04 1006.77 1007.48 1008.00 1008.56 1009.08 1009.67 1010.22 1010.80 1011.22 1011.41 1011.52 1011.68 1011.72 1011.77 1011.69 1011.57 1011.46
999.43 997.00 996.33 995.09 994.09 994.22 994.54 994.76 994.96 994.70 995.15 995.46 996.01 996.62 997.16 999.22 1000.90 1002.06 1003.76 1002.31 1001.52 1002.39 1002.97 1003.61 1004.45 1005.34 1006.16 1006.78 1007.30 1007.76 1008.48 1009.02 1009.60 1010.18 1010.76 1011.10 1011.24 1011.51 1011.57 1011.60 1011.54 1011.46 1011.14 1010.94
1000.14 1000.21 999.46 995.88 995.98 995.62 994.93 996.63 994.79 994.58 994.51 995.21 995.95 996.44 997.14 997.92 1000.00 1001.61 1000.96 1001.30 1001.90 1002.38 1002.74 1003.58 1004.74 1005.49 1005.85 1006.82 1007.40 1007.93 1008.45 1008.97 1009.74 1010.22 1010.67 1011.07 1011.25 1011.22 1011.22 1011.18 1011.00 1010.86 1010.63 1010.69
1005.39 1005.12 1001.18 999.13 998.98 996.03 994.68 994.23 994.23 994.02 994.73 995.33 996.15 996.92 997.45 998.10 998.92 999.88 1000.66 1001.30 1001.90 1002.21 1003.01 1004.16 1004.96 1006.37 1007.06 1006.78 1007.91 1008.59 1009.10 1009.44 1009.88 1010.31 1010.71 1010.86 1010.87 1010.76 1010.77 1010.75 1010.65 1010.64 1010.52 1010.75
1005.46 1004.94 1004.12 998.97 999.24 998.72 995.38 993.91 994.08 994.61 995.00 995.63 996.63 997.30 998.09 998.71 999.42 1000.08 1000.94 1001.74 1002.39 1002.90 1003.48 1004.92 1005.87 1006.79 1007.28 1007.25 1008.49 1009.20 1009.67 1010.01 1010.30 1010.50 1010.72 1010.95 1011.01 1010.76 1010.77 1010.68 1010.46 1010.43 1010.65 1010.62
Thickness
5884 5862 5853 5877 5858 5847 5827 5822 5868 5877 5888 5877 5874 5865 5864 5871 5865 5856 5853 5848 5846 5844 5851 5849 5846 5845 5838 5830 5820 5815 5812 5811 5808 5803 5801 5801 5798 5799 5799 5790 5801 5793 5793 5798
5864 5856 5882 5898 5882 5866 5852 5873 5849 5880 5888 5878 5861 5868 5872 5871 5866 5864 5858 5853 5850 5849 5849 5847 5845 5844 5838 5829 5822 5816 5814 5810 5807 5806 5806 5804 5803 5798 5794 5791 5797 5800 5795 5798
5855 5876 5896 5889 5891 5889 5891 5884 5864 5849 5886 5893 5883 5860 5853 5800 5866 5873 5873 5867 5860 5854 5850 5848 5845 5846 5843 5833 5827 5820 5816 5812 5809 5810 5809 5805 5803 5804 5794 5796 5799 5798 5798 5801
5866 5889 5892 5881 5878 5894 5878 5910 5900 5893 5870 5848 5887 5832 5827 5833 5857 5864 5871 5870 5865 5859 5858 5857 5852 5849 5847 5841 5838 5829 5821 5816 5813 5813 5810 5805 5797 5795 5803 5806 5807 5806 5801 5804
5858 5872 5875 5869 5881 5899 5881 5913 5894 5890 5876 5871 5875 5858 5831 5854 5847 5848 5866 5872 5874 5870 5864 5861 5861 5859 5859 5854 5845 5838 5829 5823 5820 5817 5816 5811 5805 5806 5809 5810 5807 5805 5809 5808
5865 5898 5884 5880 5890 5892 5899 5889 5890 5884 5872 5839 5875 5873 5818 5819 5831 5817 5840 5861 5880 5879 5873 5871 5873 5870 5863 5860 5851 5844 5834 5827 5824 5821 5819 5814 5811 5809 5807 5809 5809 5811 5811 5795
5849 5860 5878 5884 5863 5882 5879 5867 5836 5832 5836 5837 5897 5855 5828 5836 5845 5851 5850 5870 5888 5888 5880 5876 5874 5871 5866 5860 5855 5848 5838 5828 5826 5822 5819 5816 5814 5813 5811 5811 5811 5812 5813 5814
5824 5818 5859 5879 5863 5859 5865 5868 5840 5810 5830 5858 5884 5803 5821 5837 5869 5873 5873 5888 5898 5890 5889 5885 5882 5879 5870 5865 5858 5851 5838 5830 5827 5822 5818 5816 5815 5814 5812 5811 5812 5815 5818 5807
5836 5841 5888 5882 5882 5872 5862 5854 5883 5859 5873 5860 5858 5862 5875 5868 5881 5897 5904 5903 5897 5893 5895 5891 5888 5884 5878 5870 5863 5858 5845 5837 5829 5824 5822 5818 5814 5812 5811 5812 5813 5815 5816 5799
5855 5835 5885 5883 5884 5880 5868 5892 5854 5857 5815 5817 5843 5842 5847 5855 5881 5903 5897 5898 5897 5898 5899 5897 5894 5890 5886 5879 5870 5863 5852 5842 5838 5831 5822 5817 5813 5810 5810 5812 5811 5814 5818 5815
5858 5852 5857 5879 5854 5849 5856 5853 5864 5873 5868 5838 5836 5848 5888 5886 5903 5906 5901 5909 5903 5902 5902 5903 5900 5895 5889 5885 5874 5863 5852 5844 5837 5832 5823 5816 5808 5805 5806 5808 5811 5812 5814 5815
5858 5848 5835 5854 5882 5883 5875 5867 5865 5846 5841 5868 5866 5853 5912 5902 5906 5910 5905 5910 5905 5915 5907 5909 5906 5898 5885 5880 5874 5861 5853 5845 5838 5834 5826 5818 5807 5801 5807 5808 5810 5812 5811 5813
5860 5832 5820 5838 5868 5877 5856 5870 5883 5881 5886 5859 5849 5861 5906 5910 5902 5906 5905 5903 5906 5910 5911 5910 5905 5895 5887 5877 5869 5860 5853 5846 5840 5834 5824 5819 5814 5813 5811 5811 5811 5815 5815 5813
5860 5845 5832 5826 5852 5876 5850 5860 5872 5873 5857 5865 5872 5881 5882 5896 5889 5891 5894 5896 5896 5899 5905 5906 5902 5892 5886 5872 5862 5853 5849 5846 5839 5829 5820 5817 5814 5812 5812 5811 5813 5816 5816 5814
5845 5823 5845 5858 5869 5876 5873 5865 5862 5852 5867 5858 5876 5865 5872 5893 5879 5886 5891 5890 5887 5892 5895 5897 5890 5882 5873 5864 5856 5851 5846 5840 5833 5823 5820 5816 5816 5815 5814 5814 5814 5815 5815 5813
5848 5821 5839 5837 5864 5868 5857 5872 5877 5870 5867 5873 5879 5872 5885 5873 5874 5878 5882 5883 5880 5884 5890 5888 5883 5875 5866 5856 5849 5844 5839 5833 5828 5822 5818 5817 5814 5813 5812 5811 5811 5810 5810 5809
5837 5830 5827 5815 5852 5858 5833 5858 5869 5878 5883 5878 5861 5878 5884 5863 5866 5874 5881 5881 5879 5881 5881 5875 5873 5870 5861 5853 5846 5837 5833 5830 5825 5821 5818 5815 5813 5810 5810 5811 5810 5808 5807 5807
5838 5833 5837 5826 5841 5800 5858 5894 5891 5881 5885 5893 5891 5884 5884 5878 5884 5883 5885 5883 5880 5879 5873 5870 5870 5866 5858 5851 5843 5840 5837 5829 5824 5821 5820 5819 5815 5812 5812 5811 5810 5811 5811 5808
5857 5848 5831 5823 5825 5843 5860 5880 5868 5868 5871 5881 5880 5878 5879 5885 5888 5874 5888 5890 5883 5877 5872 5871 5871 5865 5856 5846 5842 5836 5832 5831 5824 5819 5816 5815 5815 5812 5810 5808 5808 5809 5807 5805
5858 5860 5840 5833 5816 5800 5840 5876 5905 5894 5843 5867 5872 5867 5840 5834 5849 5857 5885 5886 5879 5873 5873 5872 5867 5857 5850 5845 5840 5835 5828 5826 5820 5819 5815 5815 5813 5808 5806 5804 5802 5803 5802 5800
5830 5834 5824 5827 5823 5846 5859 5847 5867 5831 5829 5864 5869 5869 5871 5837 5817 5810 5829 5873 5872 5868 5868 5869 5861 5850 5846 5844 5839 5831 5827 5820 5819 5815 5810 5806 5806 5803 5800 5798 5799 5798 5796 5796
5810 5818 5822 5834 5816 5804 5856 5820 5784 5858 5862 5869 5871 5870 5870 5848 5830 5792 5787 5810 5862 5859 5857 5856 5849 5845 5844 5841 5835 5828 5822 5823 5817 5811 5804 5801 5800 5799 5797 5794 5793 5793 5791 5789
5783 5837 5835 5850 5846 5870 5868 5860 5874 5876 5865 5869 5869 5873 5872 5845 5835 5821 5806 5839 5858 5855 5852 5851 5844 5839 5838 5837 5833 5825 5821 5818 5813 5807 5800 5797 5796 5794 5792 5789 5787 5785 5787 5785
5799 5818 5801 5847 5837 5847 5840 5834 5877 5879 5875 5879 5877 5874 5872 5863 5846 5836 5855 5856 5851 5849 5847 5846 5838 5831 5829 5830 5828 5823 5819 5814 5806 5800 5796 5793 5790 5788 5788 5788 5787 5784 5782 5778
5747 5747 5790 5810 5793 5827 5859 5869 5874 5878 5880 5877 5876 5872 5869 5866 5859 5855 5852 5848 5846 5846 5846 5832 5812 5818 5819 5824 5816 5814 5809 5805 5799 5796 5792 5790 5789 5787 5786 5785 5783 5780 5779 5773
5742 5746 5749 5818 5798 5804 5847 5869 5876 5870 5871 5873 5867 5864 5866 5864 5857 5856 5849 5846 5843 5840 5841 5826 5816 5812 5814 5814 5806 5803 5801 5796 5792 5787 5784 5780 5779 5780 5777 5775 5774 5776 5770 5768